ニート彗星

246P/NEAT (2021)

English version
Home page
Updated on September 4, 2021

---------------------------------------------------------------------

・ プロフィール

・ 写真集

・ 軌道要素

Epoch 2021 July 5.0 TT = JDT 2459400.5
T 2021 Feb. 22.95740 TT                                 Rudenko
q   2.8639949            (2000.0)            P               Q
n   0.12236970     Peri.  176.33101     -0.25510998     +0.92842666
a   4.0180944      Node    78.74505     -0.89398669     -0.12006249
e   0.2872256      Incl.   15.98438     -0.36838390     -0.35158061
P   8.05
From 4256 observations 2003 Mar. 7-2021 June 28, mean residual 0".6.
     Nongravitational parameters A1 = -0.87, A2 = +0.4399.

・ 星図

・ 光度変化

        m1 = -17.5 + 5 logΔ + 50   log r(t - 200)  [    ,-460]  (              〜2019年11月20日)
        m1 =   0.0 + 5 logΔ + 25.0 log r(t + 85)   [-460, 130]  (2019年11月20日〜2021年 7月 2日)
        m1 =   5.2 + 5 logΔ + 15.0 log r           [ 130,    ]  (2021年 7月 2日〜              )

---------------------------------------------------------------------

軌道要素はM.P.E.C. 2021-O56に掲載されたものです。
星図はステラナビゲータ Ver.10 (アストロアーツ) で作成したものです。
光度グラフはComet for Windowsで作成したものです。

---------------------------------------------------------------------

Copyright(C) Seiichi Yoshida (comet@aerith.net). All rights reserved.